This is the latest recevied weather packets stored in our database for station/object KC5TIL-3. If no packets are shown the sender has not sent any weather packets the latest 10 day(s).
| Time | Temp. | Humidity | Pressure | Rain* | Wind** | Luminosity | Snow |
|---|---|---|---|---|---|---|---|
| 1788153587 | 31.67° C | 15% | 1011.8 hPa | 0 mm | 3.13 m/s, 196° | - | - |
| 1788153289 | 31.67° C | 15% | 1011.8 hPa | 0 mm | 2.68 m/s, 174° | - | - |
| 1788152987 | 31.67° C | 15% | 1011.8 hPa | 0 mm | 1.79 m/s, 142° | - | - |
| 1788152689 | 31.67° C | 15% | 1011.8 hPa | 0 mm | 1.34 m/s, 145° | - | - |
| 1788152391 | 31.67° C | 15% | 1011.8 hPa | 0 mm | 2.68 m/s, 221° | - | - |
| 1788152090 | 31.67° C | 15% | 1011.8 hPa | 0 mm | 1.79 m/s, 168° | - | - |
| 1788151791 | 31.67° C | 15% | 1011.8 hPa | 0 mm | 1.79 m/s, 216° | - | - |
| 1788151493 | 31.67° C | 15% | 1011.8 hPa | 0 mm | 1.79 m/s, 193° | - | - |
| 1788151192 | 31.67° C | 15% | 1011.8 hPa | 0 mm | 1.79 m/s, 165° | - | - |
| 1788150894 | 31.67° C | 15% | 1011.8 hPa | 0 mm | 1.79 m/s, 195° | - | - |
| 1788150596 | 31.67° C | 15% | 1011.8 hPa | 0 mm | 1.79 m/s, 226° | - | - |
| 1788150294 | 31.67° C | 15% | 1011.8 hPa | 0 mm | 2.68 m/s, 160° | - | - |
| 1788149996 | 31.67° C | 15% | 1011.8 hPa | 0 mm | 1.79 m/s, 186° | - | - |
| 1788149698 | 31.67° C | 15% | 1011.8 hPa | 0 mm | 1.79 m/s, 161° | - | - |
| 1788149397 | 31.67° C | 15% | 1011.8 hPa | 0 mm | 1.79 m/s, 163° | - | - |
| 1788149098 | 31.67° C | 15% | 1011.8 hPa | 0 mm | 1.79 m/s, 196° | - | - |
| 1788148800 | 31.67° C | 15% | 1011.8 hPa | 0 mm | 2.24 m/s, 156° | - | - |
| 1788148499 | 31.67° C | 15% | 1011.8 hPa | 0 mm | 1.79 m/s, 181° | - | - |
| 1788148201 | 32.22° C | 12% | 1011.8 hPa | 0 mm | 1.79 m/s, 140° | - | - |
| 1788147903 | 32.22° C | 12% | 1011.8 hPa | 0 mm | 1.79 m/s, 157° | - | - |
| 1788147601 | 32.22° C | 12% | 1011.8 hPa | 0 mm | 1.79 m/s, 144° | - | - |
| 1788147303 | 32.22° C | 12% | 1011.8 hPa | 0 mm | 0 m/s | - | - |
| 1788147005 | 32.22° C | 12% | 1011.8 hPa | 0 mm | 2.24 m/s, 139° | - | - |
| 1788146704 | 32.22° C | 12% | 1011.8 hPa | 0 mm | 1.34 m/s, 141° | - | - |
| 1788146405 | 32.22° C | 12% | 1011.8 hPa | 0 mm | 1.79 m/s, 145° | - | - |
* Rain latest hour (hover to see other rain measurements)
** Current wind speed in m/s (hover to see current wind gust speed)